Location: Chantarel
(45.1638°N, 1.7873°E)
Time: 17:21:11
(UTC+00:00)

Cosmos 2366 rocket - Pass Details

Date: 03 March 2021
Orbit: 955 x 997 km, 82.9° (Epoch: 11 April)

Event Time Altitude Azimuth Distance (km) Brightness Sun altitude
Rises 20:05:07 0° 195° (SSW) 3,678 7.0 -25.6°
Reaches altitude 10° 20:07:39 10° 198° (SSW) 2,740 6.3 -26.0°
Maximum altitude 20:13:54 68° 280° (W) 1,071 4.3 -27.0°
Drops below altitude 10° 20:20:16 10° 4° (N) 2,775 6.5 -28.1°
Sets 20:22:50 0° 7° (N) 3,730 7.2 -28.5°
